Key statistics
Satellite CZ-6A DEB at a glance.
Uptime
245
Days in orbit
Revolutions
≈ 15.6
Per day
Orbit
LEO
Low Earth Orbit
Inclination
89.0
Latest
Satellite identification and parameters
Extended collection of information and parameters for CZ-6A DEB.
Object identification
Identified? True
Debris? True
Object name: CZ-6A DEB
International designator: 2024-140ABD
Object number (NORAD): 61495
Object ID (CCSDS): 61495
Country: PEOPLES REPUBLIC OF CHINA (PRC)
Current information (Y/N): Y
RCS size: SMALL
Orbital parameters
Decay date: April 8, 2025
Period: 92.246 minutes
Inclination: 89.006 deg
SMA: 6762.76 km
Apoapsis: 392.628 km
Periapsis: 376.623 km
RAAN: 322.6295 deg
Eccentricy: 0.0011833
Argument of periapsis: 267.0171 deg
Mean anomaly: 92.9743 deg
Mean motion: 15.61049842 rev/day
Mean motion (dot): 0.04295506 rev/day2
B* drag term: 0.043235 1/REarth
Two-line elements (TLE)
Creation date: April 3, 2025, 8:53 p.m.
Reference frame: TEME
Reference center: EARTH
Epoch: April 3, 2025, 9:07 a.m. UTC
TLE line 0: 0 CZ-6A DEB
TLE line 1: 1 61495U 24140ABD 25093.38010436 .04295506 00000-0 43235-1 0 9999
TLE line 2: 2 61495 89.0060 322.6295 0011833 267.0171 92.9743 15.61049842 34415
Live tracking on map
Satellite CZ-6A DEB has decayed and is no longer in orbit. No tracking available.
In-orbit conjunctions
Satellite CZ-6A DEB has decayed and is no longer in orbit. No conjunctions available.
Associated space launch
18 Low Earth Orbit communication satellites with Ku, Q and V band payloads for the G60 constellation operated by Shanghai Spacecom Satellite Technology (SSST) with funding backed by the Shanghai local government. Initial constellation will consist of 1296 satellites by 2027 with long term plans to expand it to 12000 satellites.
CZ-6A DEB was lifted into orbit during the mission ‘Long March 6A | G60 Polar Group 01’, on board a Long March 6A space rocket.
The launch took place on Aug. 6, 2024, 6:42 a.m. from Launch Complex 9A.
For more information about the launch, click the button.
Long March 6A | G60 Polar Group 01
Agency: N/A
Status: Launch Successful
Launch date: Aug. 6, 2024, 6:42 a.m. UTC
Rocket: Long March 6A
Launch pad: Launch Complex 9A
Location: Taiyuan Satellite Launch Center, People's Republic of China
...
Latest news about this satellite
Brightness of first Chinese broadband constellation satellites alarms astronomers
The first satellites of a Chinese broadband constellation are significantly brighter than those of Western systems, posing a new challenge for astronomers.
Chinese rocket stage breaks up into cloud of more than 700 pieces of space debris
HELSINKI — A Chinese Long March 6A rocket’s upper stage has fragmented into a cloud of over 700 pieces of space debris, adding to concerns about long-term orbital safety. China […]
China's Thousand Sails Megaconstellation Kicks Off with Dangerous Debris Field
China's Thousand Sails Megaconstellation Kicks Off with Dangerous Debris Field
Newsletter sign-up
Weekly statistics, charts and insights to help you stay on top of the space industry.
